SCP
0 0 0 0 0 0 0 0 0 0 0 0 0 0 0 0 0 0 0 0 0 0 0 0 0 0 0 0 0 0 0 0 0 0 0 0 0 0 0 0 0 0 0 1 1
0 0 0 0 0 0 0 0 0 0 0 0 0 0 0 0 0 0 0 0 0 0 0 0 0 0 0 0 0 0 0 0 0 0 0 0 0 0 0 0 0 1 2 1 1
0 0 0 0 0 0 0 0 0 0 0 0 0 0 0 0 0 -0 -0 -0 0 0 0 0 0 0 0 0 0 0 0 0 0 0 0 -0 -0 0 0 0 0 0 1 1 1
0 0 0 0 0 0 0 0 0 0 0 0 0 0 0 0 0 0 0 0 0 0 0 0 0 0 0 0 0 0 0 0 0 0 0 0 -0 -0 0 0 0 0 0 1 0
0 0 0 0 0 0 0 0 0 0 0 0 0 0 0 0 0 0 0 0 0 0 0 0 0 0 0 0 0 0 0 0 0 0 0 0 0 0 0 0 0 0 0 0 0
0 0 0 0 0 0 0 0 0 0 0 0 0 0 0 -0 0 0 0 0 0 0 0 0 0 0 0 0 0 0 0 0 0 0 0 0 0 0 0 0 0 0 0 0 0
0 0 0 0 0 0 0 0 0 0 0 0 0 0 0 0 0 0 0 -0 0 0 0 0 0 0 0 0 0 0 0 0 0 0 0 0 0 0 0 0 0 0 0 0 0
0 0 0 0 0 0 0 0 0 0 0 0 0 0 0 0 0 0 0 0 -0 0 0 0 0 0 0 0 0 0 0 0 0 0 0 0 0 0 0 0 0 0 0 0 0
0 0 0 0 0 0 0 -0 0 0 0 0 0 0 0 0 0 0 0 0 0 0 0 0 0 0 0 0 0 0 0 0 0 0 0 0 0 0 0 0 0 0 0 0 0
0 0 0 0 0 0 0 0 0 0 0 0 0 0 0 0 0 0 0 0 0 0 0 0 0 0 0 0 0 0 0 0 0 0 0 0 0 0 0 0 0 0 0 0 0
0 0 0 0 0 0 0 0 0 0 -0 0 0 0 0 0 0 0 0 0 0 0 0 0 0 0 0 0 0 0 0 0 0 0 0 0 0 0 0 0 0 0 0 0 0
0 0 0 0 0 0 0 0 0 0 0 0 -0 -0 0 0 0 0 0 0 0 -0 0 0 0 0 0 0 0 0 0 0 0 0 0 0 0 0 0 0 0 0 0 0 0
0 0 -0 0 0 0 0 0 0 0 0 0 0 -0 0 0 0 0 0 0 0 -0 0 0 0 0 0 0 0 0 0 0 0 0 0 0 0 0 0 0 0 0 0 0 0
0 0 0 -0 0 0 0 0 -0 -0 0 0 0 0 -0 0 0 0 0 0 0 -0 0 0 0 0 0 0 0 0 0 0 0 0 0 0 0 0 0 0 0 0 0 0 0
-0 -0 0 0 0 0 0 0 0 0 0 0 0 0 0 0 0 -0 0 0 0 -0 0 0 0 0 0 0 0 0 0 0 0 0 0 0 0 0 0 0 0 0 0 0 0
-0 -0 0 0 0 0 0 0 0 0 0 0 0 0 0 -0 -0 0 0 0 0 0 0 0 0 0 0 0 0 0 0 0 0 0 0 0 0 0 0 0 0 0 0 0 0
-0 -0 0 0 0 0 0 0 0 0 0 0 0 0 0 0 -0 -0 -0 0 0 0 0 0 0 0 0 0 0 0 0 0 0 0 0 0 0 0 0 0 0 0 0 0 0
-0 -0 0 0 0 0 0 0 0 0 0 0 0 0 0 0 0 0 0 0 0 0 0 0 0 0 0 0 0 0 0 0 0 0 0 0 0 0 0 0 0 0 0 0 0
-0 0 0 0 0 0 0 0 0 0 0 0 0 0 0 0 0 0 0 0 0 0 0 0 0 0 0 0 0 0 0 0 0 0 0 0 0 0 0 0 0 0 0 0 0
0 0 0 0 0 0 0 0 0 0 0 0 0 0 0 0 0 0 0 0 0 0 0 0 0 0 0 0 0 0 0 0 0 0 0 0 0 0 0 0 0 0 0 0 0
0 0 0 0 0 0 0 0 0 0 0 0 0 0 -0 0 0 0 -0 0 0 0 0 0 0 0 0 0 0 0 0 0 0 0 0 0 0 0 0 0 0 0 0 0 0
0 0 0 0 0 0 0 0 0 0 0 0 0 0 0 -0 -0 -0 0 -0 0 0 0 0 0 0 0 0 0 0 0 0 0 0 0 0 0 0 0 0 0 0 0 0 0
0 0 0 0 0 0 0 0 0 0 -0 0 0 0 0 -0 -0 0 -0 0 0 0 0 0 0 0 0 0 0 0 0 0 0 0 0 0 0 0 0 0 0 0 0 0 0
0 0 0 -0 0 0 0 0 -0 0 0 -0 -0 -0 -0 -0 -0 -0 0 0 0 0 0 0 0 0 0 0 0 0 0 0 0 0 0 0 0 0 0 0 0 0 0 0 0
0 0 0 0 0 0 0 0 0 0 0 0 -0 -0 -0 0 0 0 0 0 0 0 0 0 0 0 0 0 0 0 0 0 0 0 0 0 0 0 0 0 0 0 0 0 0
0 0 0 0 0 0 0 0 0 0 0 0 0 0 0 0 0 0 0 0 0 0 0 0 0 0 0 0 0 0 0 0 0 0 0 0 0 0 0 0 0 0 0 0 0
0 0 0 0 0 0 0 0 0 0 -0 0 0 0 0 0 0 0 0 0 0 0 0 0 0 0 0 0 0 0 0 0 0 0 0 0 0 0 0 0 0 0 0 0 0
Wind_Speed_500mb
42 43 41 40 39 37 37 37 35 35 33 31 33 36 40 41 39 39 44 44 41 26 10 13 16 35 29 27 33 29 5 15 28 33 37 54 27 52 25 31 7 15 40 47 49
44 43 42 42 38 37 35 34 34 30 28 28 29 29 30 35 41 55 58 46 42 44 39 27 23 33 18 16 28 14 11 32 23 21 12 29 1 23 32 14 10 43 36 38 43
41 44 44 46 42 38 37 33 32 31 28 27 25 25 23 26 31 38 17 35 49 45 47 44 25 41 29 14 23 16 26 38 23 30 25 10 16 46 51 20 11 50 44 36 34
44 41 43 47 44 41 41 40 34 30 27 24 22 21 18 14 14 30 12 15 25 55 48 48 48 42 16 17 26 11 39 15 13 19 13 11 27 45 57 19 1 13 37 39 31
46 47 47 47 41 41 40 37 35 29 25 22 20 16 12 16 40 24 11 29 7 58 57 53 54 36 19 20 12 15 7 38 49 17 28 32 11 12 31 6 7 18 47 38 29
47 48 51 43 46 52 51 44 37 28 24 22 17 15 16 19 17 7 10 21 9 29 51 56 33 50 33 21 33 7 30 34 14 32 40 14 9 2 26 7 8 16 26 24 22
46 48 45 48 54 53 50 41 35 27 25 20 16 13 14 30 14 17 5 5 22 10 26 31 50 29 25 22 35 31 9 15 9 30 14 10 7 15 27 14 6 2 16 13 16
48 42 50 52 55 50 47 38 31 22 20 15 13 12 13 9 5 23 20 24 15 18 14 19 11 26 12 20 24 21 8 5 12 14 13 18 10 14 23 23 30 17 15 22 21
48 46 48 50 53 47 45 32 19 12 9 5 2 8 12 5 6 9 9 17 20 10 17 6 9 13 23 12 2 13 11 15 7 17 10 12 2 8 25 41 40 38 25 21 23
53 45 49 46 46 38 42 27 14 2 4 10 7 2 6 2 6 7 2 16 10 3 6 6 11 13 7 21 33 35 27 13 14 26 15 13 12 10 21 43 48 40 33 36 38
52 49 43 40 32 38 39 9 12 14 19 5 3 3 16 6 8 6 9 13 9 15 7 14 16 27 53 30 11 11 19 11 20 15 12 16 13 23 28 24 40 44 45 38 53
50 47 38 29 23 33 28 14 19 7 9 17 16 19 18 15 7 10 13 9 5 5 4 5 28 13 14 18 11 14 19 19 8 18 25 18 29 21 29 18 33 34 35 33 15
54 47 32 19 17 27 32 26 13 13 3 9 9 10 8 11 12 21 4 17 5 14 15 9 5 23 23 25 22 8 10 6 2 6 6 12 13 17 23 35 44 42 44 35 22
51 41 23 14 5 16 22 18 14 3 7 2 3 5 5 7 3 16 12 13 4 12 9 14 15 33 21 25 21 13 12 12 6 14 9 9 9 18 28 37 24 51 56 43 36
38 29 18 15 6 13 13 11 13 6 6 6 2 4 3 6 0 6 18 16 13 15 12 13 33 33 18 17 12 8 9 6 11 17 7 7 1 15 16 33 41 30 44 25 25
26 26 20 15 10 12 12 7 4 6 12 4 6 2 1 4 5 11 7 7 9 2 15 12 22 7 4 11 15 9 12 17 5 5 6 15 12 10 12 40 13 23 31 35 28
16 24 28 26 19 15 10 4 7 11 8 16 6 1 6 7 7 13 10 7 9 11 11 23 5 6 16 16 9 11 9 5 7 8 9 17 10 19 11 10 18 19 42 35 28
8 23 38 32 27 14 7 6 21 7 7 5 10 10 3 4 3 8 7 8 24 20 8 8 12 7 4 6 9 8 9 5 9 8 7 8 13 11 14 27 46 55 48 38 33
8 14 34 30 24 18 10 12 4 3 9 12 18 3 5 5 3 7 7 2 5 4 9 9 9 5 11 4 7 12 9 11 4 1 5 8 5 13 13 15 34 45 50 41 39
10 7 32 26 20 15 8 6 5 7 3 6 9 3 9 3 4 7 5 7 4 7 11 9 13 6 9 6 6 2 12 6 4 2 7 7 7 9 11 15 20 23 39 43 38
15 7 38 25 14 10 7 2 9 15 21 9 8 10 13 7 7 5 9 8 8 3 9 15 9 10 10 10 16 7 6 5 5 5 5 4 10 11 28 24 21 21 42 43 35
11 6 32 25 13 8 5 14 6 14 9 9 9 8 8 14 13 8 6 4 19 9 7 7 10 8 4 11 19 11 10 7 7 10 5 4 8 5 16 15 30 34 40 41 37
9 7 17 18 7 10 12 9 7 5 8 6 7 8 8 11 7 6 6 11 18 7 4 5 5 8 6 3 6 9 16 9 4 4 7 8 7 4 16 16 31 37 44 40 33
8 7 12 10 8 3 6 10 17 9 7 10 8 13 8 10 12 5 4 3 10 4 6 3 6 10 12 8 9 8 11 9 9 6 7 8 9 12 20 18 20 29 33 34 31
10 5 6 8 9 16 7 8 14 15 13 19 2 14 9 4 4 4 3 3 3 6 6 7 6 3 5 8 8 9 8 13 8 7 9 2 7 22 25 20 32 38 40 40 34
8 6 8 9 29 10 10 8 11 13 6 12 7 15 12 6 4 5 2 3 2 3 2 5 4 6 4 6 7 6 11 14 10 8 8 8 7 14 33 42 24 40 43 45 39
11 4 5 10 9 5 2 4 12 19 15 4 7 8 5 4 18 24 6 4 4 4 2 4 8 5 4 5 1 9 18 17 11 10 11 11 14 4 12 19 31 39 45 43 38
Wind_Direction_500mb
335 331 332 328 321 319 319 316 310 296 292 289 285 280 279 279 277 272 263 265 237 210 167 175 245 214 200 213 206 195 106 203 204 201 214 234 264 258 248 230 100 106 148 159 152
338 335 332 324 317 315 312 309 308 306 293 288 287 282 274 276 273 269 262 264 248 224 240 224 209 198 202 215 199 170 192 208 193 217 217 256 276 264 305 172 93 127 135 153 160
334 331 330 327 322 316 312 309 305 299 293 288 286 284 281 270 282 275 295 253 239 221 228 220 202 202 210 211 196 213 211 214 209 234 269 151 184 218 249 271 150 146 161 166 159
337 334 331 327 322 317 313 309 299 291 287 282 283 286 273 245 238 153 124 348 247 212 213 220 215 203 177 206 203 213 229 221 220 257 306 282 183 184 228 280 174 149 181 177 177
339 334 328 327 322 317 309 302 303 285 281 277 275 272 248 223 238 222 294 341 48 197 206 215 218 209 186 197 238 240 257 225 251 262 290 307 319 173 207 211 122 105 178 164 164
338 330 330 328 322 317 312 303 292 286 278 276 270 256 233 251 282 294 298 264 273 185 207 217 211 210 195 190 198 234 226 252 254 194 246 272 274 305 229 197 93 129 135 136 162
336 333 334 332 327 324 321 309 293 269 273 270 267 247 226 242 205 141 290 53 274 240 195 219 225 219 219 200 207 231 135 250 222 185 195 146 268 236 251 292 333 121 174 180 157
339 340 339 337 333 331 329 318 298 267 262 265 254 223 244 311 203 228 251 286 290 286 229 197 232 228 227 198 185 210 127 177 215 164 189 154 243 241 236 255 266 260 254 207 202
340 339 341 340 337 342 341 330 305 255 237 240 215 206 262 346 221 261 238 254 218 220 267 269 228 200 214 215 150 164 207 176 217 225 159 160 236 238 223 230 249 249 249 258 240
344 337 342 343 341 356 2 18 18 73 143 131 139 195 253 222 114 113 132 210 178 149 254 244 199 196 186 176 196 196 183 201 198 212 192 181 200 287 219 234 242 245 243 256 257
344 346 347 344 351 2 3 40 44 51 129 185 262 248 53 140 351 28 221 166 146 128 219 191 209 196 196 186 111 130 155 164 206 245 163 206 204 226 248 209 214 230 235 242 255
345 346 346 351 9 8 16 82 81 80 321 249 246 265 275 289 307 295 237 146 109 68 292 269 219 207 175 181 155 167 179 212 267 198 187 202 230 213 241 236 216 215 222 224 236
345 344 348 350 34 17 28 42 70 178 170 315 240 257 260 232 231 253 278 143 138 148 174 268 339 170 188 183 179 209 138 185 116 96 145 146 259 228 230 238 231 229 236 234 236
345 346 355 4 38 14 32 33 357 101 65 6 302 302 227 198 233 238 211 159 145 197 128 284 233 186 181 186 176 185 195 220 303 155 186 172 254 236 215 223 217 215 223 228 239
348 3 14 13 38 9 11 27 357 12 47 331 236 280 166 181 75 171 185 169 184 162 162 239 178 180 171 179 133 143 65 45 221 234 172 206 184 257 205 213 214 197 201 208 204
5 20 24 17 354 353 339 309 22 48 22 4 253 140 117 167 142 145 124 98 118 317 233 252 126 115 144 81 92 116 80 51 71 128 238 224 164 271 196 210 180 171 176 157 154
22 32 29 26 350 359 9 149 55 54 332 333 320 247 232 151 162 160 157 191 178 185 178 111 58 90 91 89 32 76 90 160 194 196 217 184 174 248 290 198 170 150 156 157 167
35 30 27 16 24 22 13 67 58 332 323 328 290 294 99 123 7 148 176 250 223 222 51 97 110 33 14 77 129 131 163 186 191 185 207 145 225 248 288 181 155 152 149 154 163
23 34 17 7 9 1 24 45 38 335 275 309 311 356 89 139 173 175 217 22 67 290 129 117 74 45 51 76 146 160 192 124 242 112 88 196 299 335 8 94 128 143 154 160 155
22 63 13 10 5 3 45 92 247 209 27 297 351 223 65 243 173 233 124 236 251 214 137 143 117 126 148 112 55 316 148 151 44 273 224 264 212 217 186 178 152 149 155 157 157
36 36 11 7 26 26 71 316 294 237 190 206 297 313 355 165 230 173 29 14 355 300 129 155 106 126 146 211 178 144 171 192 119 164 220 159 254 214 196 180 161 159 162 159 163
45 49 1 6 42 354 4 320 285 299 176 246 239 265 331 6 17 75 80 48 352 331 52 39 118 117 176 184 169 168 179 192 141 205 198 179 268 298 156 153 154 169 171 166 169
40 358 20 14 66 15 306 294 249 288 311 313 319 328 319 355 65 78 58 359 7 40 128 169 113 102 99 55 235 216 176 229 173 68 209 161 263 91 107 113 157 150 160 166 173
34 25 351 26 47 204 310 302 345 262 269 326 288 322 336 34 30 84 99 342 349 47 339 108 84 150 180 181 139 185 194 163 146 130 190 207 134 158 140 144 153 164 173 181 189
52 66 18 331 326 321 21 345 351 7 330 347 77 10 325 337 58 90 122 213 282 319 6 99 125 118 110 111 126 187 192 172 150 209 151 246 137 190 172 169 185 192 185 185 188
70 22 343 271 298 298 40 9 319 344 293 342 21 338 33 59 17 300 316 11 176 295 34 22 148 102 327 160 163 200 222 189 206 234 266 270 283 180 191 186 183 188 189 191 196
66 121 183 265 306 305 55 307 297 306 290 5 322 321 46 295 318 306 318 96 81 141 178 104 129 109 250 196 22 299 218 198 190 192 162 194 220 88 162 185 176 183 190 194 202
Wind_Speed_850mb
42 43 41 40 39 37 37 37 35 35 33 31 33 36 40 41 39 39 44 44 41 26 10 13 16 35 29 27 33 29 5 15 28 33 37 54 27 52 25 31 7 15 40 47 49
44 43 42 42 38 37 35 34 34 30 28 28 29 29 30 35 41 55 58 46 42 44 39 27 23 33 18 16 28 14 11 32 23 21 12 29 1 23 32 14 10 43 36 38 43
41 44 44 46 42 38 37 33 32 31 28 27 25 25 23 26 31 38 17 35 49 45 47 44 25 41 29 14 23 16 26 38 23 30 25 10 16 46 51 20 11 50 44 36 34
44 41 43 47 44 41 41 40 34 30 27 24 22 21 18 14 14 30 12 15 25 55 48 48 48 42 16 17 26 11 39 15 13 19 13 11 27 45 57 19 1 13 37 39 31
46 47 47 47 41 41 40 37 35 29 25 22 20 16 12 16 40 24 11 29 7 58 57 53 54 36 19 20 12 15 7 38 49 17 28 32 11 12 31 6 7 18 47 38 29
47 48 51 43 46 52 51 44 37 28 24 22 17 15 16 19 17 7 10 21 9 29 51 56 33 50 33 21 33 7 30 34 14 32 40 14 9 2 26 7 8 16 26 24 22
46 48 45 48 54 53 50 41 35 27 25 20 16 13 14 30 14 17 5 5 22 10 26 31 50 29 25 22 35 31 9 15 9 30 14 10 7 15 27 14 6 2 16 13 16
48 42 50 52 55 50 47 38 31 22 20 15 13 12 13 9 5 23 20 24 15 18 14 19 11 26 12 20 24 21 8 5 12 14 13 18 10 14 23 23 30 17 15 22 21
48 46 48 50 53 47 45 32 19 12 9 5 2 8 12 5 6 9 9 17 20 10 17 6 9 13 23 12 2 13 11 15 7 17 10 12 2 8 25 41 40 38 25 21 23
53 45 49 46 46 38 42 27 14 2 4 10 7 2 6 2 6 7 2 16 10 3 6 6 11 13 7 21 33 35 27 13 14 26 15 13 12 10 21 43 48 40 33 36 38
52 49 43 40 32 38 39 9 12 14 19 5 3 3 16 6 8 6 9 13 9 15 7 14 16 27 53 30 11 11 19 11 20 15 12 16 13 23 28 24 40 44 45 38 53
50 47 38 29 23 33 28 14 19 7 9 17 16 19 18 15 7 10 13 9 5 5 4 5 28 13 14 18 11 14 19 19 8 18 25 18 29 21 29 18 33 34 35 33 15
54 47 32 19 17 27 32 26 13 13 3 9 9 10 8 11 12 21 4 17 5 14 15 9 5 23 23 25 22 8 10 6 2 6 6 12 13 17 23 35 44 42 44 35 22
51 41 23 14 5 16 22 18 14 3 7 2 3 5 5 7 3 16 12 13 4 12 9 14 15 33 21 25 21 13 12 12 6 14 9 9 9 18 28 37 24 51 56 43 36
38 29 18 15 6 13 13 11 13 6 6 6 2 4 3 6 0 6 18 16 13 15 12 13 33 33 18 17 12 8 9 6 11 17 7 7 1 15 16 33 41 30 44 25 25
26 26 20 15 10 12 12 7 4 6 12 4 6 2 1 4 5 11 7 7 9 2 15 12 22 7 4 11 15 9 12 17 5 5 6 15 12 10 12 40 13 23 31 35 28
16 24 28 26 19 15 10 4 7 11 8 16 6 1 6 7 7 13 10 7 9 11 11 23 5 6 16 16 9 11 9 5 7 8 9 17 10 19 11 10 18 19 42 35 28
8 23 38 32 27 14 7 6 21 7 7 5 10 10 3 4 3 8 7 8 24 20 8 8 12 7 4 6 9 8 9 5 9 8 7 8 13 11 14 27 46 55 48 38 33
8 14 34 30 24 18 10 12 4 3 9 12 18 3 5 5 3 7 7 2 5 4 9 9 9 5 11 4 7 12 9 11 4 1 5 8 5 13 13 15 34 45 50 41 39
10 7 32 26 20 15 8 6 5 7 3 6 9 3 9 3 4 7 5 7 4 7 11 9 13 6 9 6 6 2 12 6 4 2 7 7 7 9 11 15 20 23 39 43 38
15 7 38 25 14 10 7 2 9 15 21 9 8 10 13 7 7 5 9 8 8 3 9 15 9 10 10 10 16 7 6 5 5 5 5 4 10 11 28 24 21 21 42 43 35
11 6 32 25 13 8 5 14 6 14 9 9 9 8 8 14 13 8 6 4 19 9 7 7 10 8 4 11 19 11 10 7 7 10 5 4 8 5 16 15 30 34 40 41 37
9 7 17 18 7 10 12 9 7 5 8 6 7 8 8 11 7 6 6 11 18 7 4 5 5 8 6 3 6 9 16 9 4 4 7 8 7 4 16 16 31 37 44 40 33
8 7 12 10 8 3 6 10 17 9 7 10 8 13 8 10 12 5 4 3 10 4 6 3 6 10 12 8 9 8 11 9 9 6 7 8 9 12 20 18 20 29 33 34 31
10 5 6 8 9 16 7 8 14 15 13 19 2 14 9 4 4 4 3 3 3 6 6 7 6 3 5 8 8 9 8 13 8 7 9 2 7 22 25 20 32 38 40 40 34
8 6 8 9 29 10 10 8 11 13 6 12 7 15 12 6 4 5 2 3 2 3 2 5 4 6 4 6 7 6 11 14 10 8 8 8 7 14 33 42 24 40 43 45 39
11 4 5 10 9 5 2 4 12 19 15 4 7 8 5 4 18 24 6 4 4 4 2 4 8 5 4 5 1 9 18 17 11 10 11 11 14 4 12 19 31 39 45 43 38
Wind_Direction_850mb
335 331 332 328 321 319 319 316 310 296 292 289 285 280 279 279 277 272 263 265 237 210 167 175 245 214 200 213 206 195 106 203 204 201 214 234 264 258 248 230 100 106 148 159 152
338 335 332 324 317 315 312 309 308 306 293 288 287 282 274 276 273 269 262 264 248 224 240 224 209 198 202 215 199 170 192 208 193 217 217 256 276 264 305 172 93 127 135 153 160
334 331 330 327 322 316 312 309 305 299 293 288 286 284 281 270 282 275 295 253 239 221 228 220 202 202 210 211 196 213 211 214 209 234 269 151 184 218 249 271 150 146 161 166 159
337 334 331 327 322 317 313 309 299 291 287 282 283 286 273 245 238 153 124 348 247 212 213 220 215 203 177 206 203 213 229 221 220 257 306 282 183 184 228 280 174 149 181 177 177
339 334 328 327 322 317 309 302 303 285 281 277 275 272 248 223 238 222 294 341 48 197 206 215 218 209 186 197 238 240 257 225 251 262 290 307 319 173 207 211 122 105 178 164 164
338 330 330 328 322 317 312 303 292 286 278 276 270 256 233 251 282 294 298 264 273 185 207 217 211 210 195 190 198 234 226 252 254 194 246 272 274 305 229 197 93 129 135 136 162
336 333 334 332 327 324 321 309 293 269 273 270 267 247 226 242 205 141 290 53 274 240 195 219 225 219 219 200 207 231 135 250 222 185 195 146 268 236 251 292 333 121 174 180 157
339 340 339 337 333 331 329 318 298 267 262 265 254 223 244 311 203 228 251 286 290 286 229 197 232 228 227 198 185 210 127 177 215 164 189 154 243 241 236 255 266 260 254 207 202
340 339 341 340 337 342 341 330 305 255 237 240 215 206 262 346 221 261 238 254 218 220 267 269 228 200 214 215 150 164 207 176 217 225 159 160 236 238 223 230 249 249 249 258 240
344 337 342 343 341 356 2 18 18 73 143 131 139 195 253 222 114 113 132 210 178 149 254 244 199 196 186 176 196 196 183 201 198 212 192 181 200 287 219 234 242 245 243 256 257
344 346 347 344 351 2 3 40 44 51 129 185 262 248 53 140 351 28 221 166 146 128 219 191 209 196 196 186 111 130 155 164 206 245 163 206 204 226 248 209 214 230 235 242 255
345 346 346 351 9 8 16 82 81 80 321 249 246 265 275 289 307 295 237 146 109 68 292 269 219 207 175 181 155 167 179 212 267 198 187 202 230 213 241 236 216 215 222 224 236
345 344 348 350 34 17 28 42 70 178 170 315 240 257 260 232 231 253 278 143 138 148 174 268 339 170 188 183 179 209 138 185 116 96 145 146 259 228 230 238 231 229 236 234 236
345 346 355 4 38 14 32 33 357 101 65 6 302 302 227 198 233 238 211 159 145 197 128 284 233 186 181 186 176 185 195 220 303 155 186 172 254 236 215 223 217 215 223 228 239
348 3 14 13 38 9 11 27 357 12 47 331 236 280 166 181 75 171 185 169 184 162 162 239 178 180 171 179 133 143 65 45 221 234 172 206 184 257 205 213 214 197 201 208 204
5 20 24 17 354 353 339 309 22 48 22 4 253 140 117 167 142 145 124 98 118 317 233 252 126 115 144 81 92 116 80 51 71 128 238 224 164 271 196 210 180 171 176 157 154
22 32 29 26 350 359 9 149 55 54 332 333 320 247 232 151 162 160 157 191 178 185 178 111 58 90 91 89 32 76 90 160 194 196 217 184 174 248 290 198 170 150 156 157 167
35 30 27 16 24 22 13 67 58 332 323 328 290 294 99 123 7 148 176 250 223 222 51 97 110 33 14 77 129 131 163 186 191 185 207 145 225 248 288 181 155 152 149 154 163
23 34 17 7 9 1 24 45 38 335 275 309 311 356 89 139 173 175 217 22 67 290 129 117 74 45 51 76 146 160 192 124 242 112 88 196 299 335 8 94 128 143 154 160 155
22 63 13 10 5 3 45 92 247 209 27 297 351 223 65 243 173 233 124 236 251 214 137 143 117 126 148 112 55 316 148 151 44 273 224 264 212 217 186 178 152 149 155 157 157
36 36 11 7 26 26 71 316 294 237 190 206 297 313 355 165 230 173 29 14 355 300 129 155 106 126 146 211 178 144 171 192 119 164 220 159 254 214 196 180 161 159 162 159 163
45 49 1 6 42 354 4 320 285 299 176 246 239 265 331 6 17 75 80 48 352 331 52 39 118 117 176 184 169 168 179 192 141 205 198 179 268 298 156 153 154 169 171 166 169
40 358 20 14 66 15 306 294 249 288 311 313 319 328 319 355 65 78 58 359 7 40 128 169 113 102 99 55 235 216 176 229 173 68 209 161 263 91 107 113 157 150 160 166 173
34 25 351 26 47 204 310 302 345 262 269 326 288 322 336 34 30 84 99 342 349 47 339 108 84 150 180 181 139 185 194 163 146 130 190 207 134 158 140 144 153 164 173 181 189
52 66 18 331 326 321 21 345 351 7 330 347 77 10 325 337 58 90 122 213 282 319 6 99 125 118 110 111 126 187 192 172 150 209 151 246 137 190 172 169 185 192 185 185 188
70 22 343 271 298 298 40 9 319 344 293 342 21 338 33 59 17 300 316 11 176 295 34 22 148 102 327 160 163 200 222 189 206 234 266 270 283 180 191 186 183 188 189 191 196
66 121 183 265 306 305 55 307 297 306 290 5 322 321 46 295 318 306 318 96 81 141 178 104 129 109 250 196 22 299 218 198 190 192 162 194 220 88 162 185 176 183 190 194 202